Tracking 29090 objects as of 15-Jul-2024
HD Live streaming from Space Station
objects crossing your sky now

ATLAS 5 CENTAUR DEB

Track ATLAS 5 CENTAUR DEB now!


NORAD ID: 43967
Int'l Code: 2014-055W
Perigee: 7,424.1 km
Apogee: 36,333.0 km
Inclination: 19.7 °
Period: 787.5 minutes
Semi major axis: 28249 km
RCS: Unknown
Launch date: September 17, 2014
Source: United States (US)
Launch site: AIR FORCE EASTERN TEST RANGE (AFETR)

Note: This is SATELLITE DEBRIS
Your satellite tracking list
Your tracking list is empty




NASA's NSSDC Master Catalog

Two Line Element Set (TLE):
1 43967U 14055W   24193.02461041 -.00000047  00000-0  00000+0 0  9992
2 43967  19.7059 207.2420 5116698  53.9912 343.4611  1.82846184 39066
Source of the keplerian elements: AFSPC